SCP
0 0 0 0 0 0 0 0 0 0 0 0 0 0 0 0 0 0 0 0 0 0 0 0 0 0 0 0 0 0 0 0 0 0 0 0 0 0 0 0 0 0 0
0 0 0 0 0 0 0 0 0 0 0 0 0 0 0 0 0 0 0 0 0 0 0 0 0 0 0 0 0 0 0 0 0 0 0 0 0 0 0 0 0 0 0
0 0 0 0 0 0 0 0 0 0 0 0 0 0 0 0 0 0 0 0 0 0 0 0 0 0 0 0 0 0 0 0 0 0 0 0 0 0 0 0 0 0 0
0 0 0 0 0 0 0 0 0 0 0 0 0 0 0 0 0 0 0 0 0 0 0 0 0 0 0 0 0 0 0 0 0 0 0 0 0 0 0 0 0 0 0
0 0 0 0 0 0 0 0 0 0 0 0 0 0 0 0 0 0 0 0 0 0 0 0 0 0 0 0 0 0 0 0 0 0 0 0 0 0 0 0 0 0 0
0 0 0 0 0 0 0 0 0 0 0 0 0 0 0 0 0 0 0 0 0 0 0 0 0 0 0 0 0 0 0 0 0 0 0 0 0 0 0 0 0 0 0
0 0 0 0 0 0 0 0 0 0 0 0 0 0 0 0 0 0 0 0 0 0 0 0 0 0 0 0 0 0 0 0 0 0 0 0 0 0 0 0 0 0 0
0 0 0 0 0 0 0 0 0 0 0 0 0 0 0 0 0 0 0 0 0 0 0 0 0 0 0 0 0 0 0 0 0 0 0 0 0 0 0 0 0 0 0
0 0 0 0 0 0 0 0 0 0 0 0 0 0 0 0 0 0 0 0 0 0 0 0 0 0 0 0 0 0 0 0 0 0 0 0 0 0 0 0 0 0 0
0 0 0 0 0 0 0 0 0 0 0 0 0 0 0 0 0 0 0 0 0 0 0 0 0 0 0 0 0 0 0 0 0 0 0 0 0 0 0 0 0 0 0
0 0 0 0 0 0 0 0 0 0 0 0 0 0 0 0 0 0 0 0 0 0 0 0 0 0 0 0 0 0 0 0 0 0 0 0 0 0 0 0 0 0 0
0 0 0 0 0 0 0 0 0 0 0 0 0 0 0 0 0 0 0 0 0 0 0 0 0 0 0 0 0 0 0 0 0 0 0 0 0 0 0 0 0 0 0
0 0 0 0 0 0 0 0 0 0 0 0 0 0 0 0 0 0 0 0 0 0 0 0 0 0 0 0 0 0 0 0 0 0 0 0 0 0 0 0 0 0 0
0 0 0 0 0 0 0 0 0 0 0 0 0 0 0 0 0 0 0 0 0 0 0 0 0 0 0 0 0 0 0 0 0 0 0 0 0 0 0 0 0 0 0
0 0 0 0 0 0 0 0 0 0 0 0 0 0 0 0 0 0 0 0 0 0 0 0 0 0 0 0 0 0 0 0 0 0 0 0 0 0 0 0 0 0 0
0 0 0 0 0 0 0 0 0 0 0 0 0 0 0 0 0 0 0 0 0 0 0 0 0 0 0 0 0 0 0 0 0 0 0 0 0 0 0 0 0 0 0
0 0 0 0 0 0 0 0 0 0 0 0 0 0 0 0 0 0 0 0 0 0 0 0 0 0 0 0 0 0 0 0 0 0 0 0 0 0 0 0 0 0 0
0 0 0 0 0 0 0 0 0 0 0 0 0 0 0 0 0 0 0 0 0 0 0 0 0 0 0 0 0 0 0 0 0 0 0 0 0 0 0 0 0 0 0
0 0 0 0 0 0 0 0 0 0 0 0 0 0 0 0 0 0 0 0 0 0 0 0 0 0 0 0 0 0 0 0 0 0 0 0 0 0 0 0 0 0 0
0 0 0 0 0 0 0 0 0 0 0 0 0 0 0 0 0 0 0 0 0 0 0 0 0 0 0 0 0 0 0 0 0 0 0 0 0 0 0 0 0 0 0
0 0 0 0 0 0 0 0 0 0 0 0 0 0 0 0 0 0 0 0 0 0 0 0 0 0 0 0 0 0 0 0 0 0 0 0 0 0 0 0 0 0 0
0 0 0 0 0 0 0 0 0 0 0 0 0 0 0 0 0 0 0 0 0 0 0 0 0 0 0 0 0 0 0 0 0 0 0 0 0 0 0 0 0 0 0
0 0 0 0 0 0 0 0 0 0 0 0 0 0 0 0 0 0 0 0 0 0 0 0 0 0 0 0 0 0 0 0 0 0 0 0 0 0 0 0 0 0 0
0 0 0 0 0 0 0 0 0 0 0 0 1 1 1 1 1 0 0 0 0 0 0 0 0 0 0 0 0 0 0 0 0 0 0 0 0 0 0 0 0 0 0
0 0 0 0 0 0 0 0 0 0 0 0 1 1 1 1 1 0 0 0 0 0 0 0 0 0 0 0 0 0 0 0 0 0 0 0 0 0 0 0 0 0 0
0 0 0 0 0 0 0 0 0 0 0 0 1 1 1 1 0 0 0 0 0 0 0 0 0 0 0 0 0 0 0 0 0 0 0 0 0 0 0 0 0 0 0
Wind_Speed
1 1 1 1 1 1 2 1 1 2 1 1 1 1 1 1 1 1 1 1 1 2 3 3 4 4 4 5 5 6 6 7 7 7 7 8 9 9 9 9 9 9 9
1 1 1 1 1 1 1 1 1 1 1 1 1 1 1 1 1 1 1 1 1 1 1 1 2 3 3 4 5 6 6 7 7 6 6 7 7 8 8 8 8 8 8
2 1 1 1 1 1 1 1 2 2 1 2 2 2 2 2 2 2 1 1 1 1 1 0 1 2 2 2 3 5 5 5 5 6 6 6 6 7 7 7 7 7 7
2 2 1 0 1 1 1 1 1 2 1 2 2 2 2 2 2 2 2 2 1 1 1 1 1 1 1 1 1 1 2 3 3 5 5 6 6 7 7 7 7 7 8
2 2 1 1 1 1 1 1 1 1 1 1 1 2 2 2 2 2 2 1 1 1 1 1 2 1 1 1 1 1 1 0 1 3 4 5 6 6 6 7 7 7 7
2 2 1 1 1 1 1 1 1 1 1 1 2 3 2 2 1 1 1 1 1 1 1 1 1 1 2 2 2 1 1 1 0 1 2 3 4 5 6 6 7 7 7
2 2 1 1 1 1 1 2 2 2 2 1 2 2 2 2 2 1 1 1 1 1 1 1 1 1 1 2 2 1 2 2 1 1 1 2 3 4 4 5 6 7 8
1 1 1 1 1 1 2 1 2 2 1 1 2 2 1 2 2 2 2 1 1 1 1 1 1 1 1 1 1 2 2 2 2 1 0 0 1 2 3 4 4 5 6
0 1 1 2 2 2 2 1 2 2 1 1 1 2 2 1 1 2 2 2 2 1 1 2 2 1 1 1 1 2 2 2 2 1 1 0 1 0 1 2 3 4 5
0 1 1 2 2 2 2 1 2 2 2 1 1 1 1 2 1 1 2 2 2 1 2 1 2 2 1 1 1 2 2 1 1 1 1 0 0 1 2 3 4 4 4
1 0 1 1 1 1 1 1 1 2 2 2 1 1 1 1 1 1 1 2 2 1 1 1 1 1 1 1 1 2 2 2 1 1 1 1 1 1 3 3 4 4 5
0 0 1 1 1 1 1 1 1 2 1 2 1 1 2 2 1 2 2 1 2 2 2 1 1 2 1 1 2 2 2 1 1 1 1 1 2 2 2 3 4 3 4
1 1 1 1 1 1 1 1 2 1 2 2 2 1 2 2 2 2 2 1 1 2 2 1 1 1 1 1 2 2 1 1 1 0 0 0 1 1 0 1 2 3 3
2 1 1 1 1 1 1 1 1 1 1 2 2 2 1 1 2 2 2 2 1 1 1 2 1 1 1 1 2 2 1 1 2 1 1 1 1 1 1 0 1 1 2
2 2 2 1 1 1 1 2 1 1 1 1 1 1 1 1 2 2 2 2 2 1 2 2 2 1 1 1 1 1 2 2 2 2 2 2 2 2 2 1 1 2 2
2 1 1 1 1 1 1 1 1 1 1 0 1 1 0 1 1 1 2 2 2 2 2 2 2 2 2 1 1 2 2 3 3 3 3 3 4 3 3 3 3 3 3
3 2 2 2 2 1 1 2 1 1 1 0 0 1 1 0 0 1 1 1 1 2 3 2 2 1 1 2 1 1 2 2 2 4 4 5 5 5 5 5 5 5 4
3 3 2 2 2 2 2 2 2 2 2 1 1 1 1 1 0 1 1 1 2 2 3 3 2 1 2 2 2 2 2 2 3 4 6 6 6 5 5 6 5 5 5
3 3 3 3 2 2 2 2 3 2 2 2 2 2 2 1 2 1 1 1 1 1 2 2 2 1 2 1 1 2 3 2 3 4 5 7 7 7 6 6 6 6 7
3 3 3 3 3 3 2 2 3 2 2 3 3 3 3 3 3 3 2 2 2 1 1 2 2 2 2 1 1 2 3 2 3 3 4 4 5 6 7 7 7 7 8
4 3 3 3 3 3 3 3 3 3 3 3 3 3 4 4 4 3 2 3 2 2 2 2 2 2 2 2 2 2 3 3 4 3 3 3 3 3 4 6 8 8 9
3 3 3 3 3 3 3 5 4 3 3 3 4 4 4 3 4 5 5 5 4 4 4 3 3 4 4 4 3 3 3 2 4 2 2 4 2 4 4 4 6 7 8
3 3 3 3 4 4 4 5 6 4 4 4 4 4 3 3 3 3 4 5 5 6 7 5 5 6 5 5 4 4 4 4 5 2 2 4 3 5 4 5 7 8 8
3 3 3 3 3 4 4 5 6 4 4 4 5 5 4 4 4 4 3 4 4 5 6 6 6 7 6 5 5 5 4 4 4 3 3 4 3 4 4 5 7 9 9
3 3 3 3 3 4 4 5 5 3 3 5 4 4 5 5 5 4 3 4 5 5 5 6 7 7 7 6 5 3 3 3 4 4 3 3 3 3 4 5 5 8 9
4 3 3 3 4 4 4 5 6 3 4 4 3 4 5 5 4 4 4 4 5 6 5 4 4 5 6 5 6 6 5 4 4 4 3 4 3 2 3 3 3 4 5
Wind_Direction
88 74 58 54 54 66 72 63 50 51 45 37 40 51 42 32 358 337 315 269 216 202 204 217 212 213 222 226 218 216 216 218 215 215 214 213 211 210 210 214 214 210 207
113 101 75 58 54 62 72 73 59 54 44 41 33 34 33 21 12 20 11 347 17 142 193 216 225 237 242 239 225 219 220 227 220 214 213 215 213 213 213 213 218 215 210
129 119 97 55 31 51 65 61 55 59 50 49 39 26 24 18 21 39 36 44 36 45 53 10 307 283 272 266 248 228 226 228 222 219 217 211 207 207 206 206 209 208 206
128 120 118 94 52 78 89 89 73 67 52 49 37 22 24 28 34 39 48 60 56 33 24 21 352 332 317 310 312 270 229 227 227 225 216 211 211 206 205 205 208 206 205
133 135 146 136 99 99 94 108 93 109 91 69 65 48 29 29 25 34 45 44 45 30 355 355 352 355 342 341 339 340 346 290 241 232 222 217 214 209 205 207 210 207 205
130 136 139 119 111 106 87 93 104 85 91 88 78 59 37 28 28 28 14 7 15 6 346 332 346 340 329 330 333 349 6 9 333 267 240 229 225 217 212 212 212 212 209
124 126 110 95 107 125 140 140 128 103 79 90 86 49 23 26 20 2 6 14 2 343 342 308 305 306 320 323 331 329 316 317 330 322 272 249 240 233 223 212 208 209 211
126 144 147 144 143 134 118 120 126 116 90 86 110 98 18 357 1 11 19 12 335 328 310 294 281 270 283 299 312 311 315 324 330 340 335 278 245 224 213 204 195 192 199
142 142 151 153 146 142 148 152 147 138 136 73 86 129 136 235 320 350 6 7 351 341 318 310 294 279 257 260 281 293 293 309 305 310 331 35 27 168 181 186 181 177 183
70 144 150 148 142 144 155 170 144 141 141 142 98 83 132 151 148 332 342 358 345 324 317 305 302 292 263 250 257 270 265 275 295 296 298 308 283 248 208 199 198 191 187
3 14 140 141 145 147 153 144 131 137 149 154 158 145 111 89 117 160 289 323 336 322 316 300 296 294 279 258 249 249 237 227 254 294 303 287 268 244 213 203 205 207 200
320 334 147 149 155 154 162 172 164 158 155 149 157 152 154 153 177 169 210 279 304 311 317 307 295 291 291 279 272 254 237 227 232 264 284 288 294 281 232 213 213 215 205
226 244 174 165 179 187 183 164 155 170 174 170 188 186 178 184 170 166 174 220 282 308 318 309 290 290 286 278 279 274 247 197 206 240 289 321 339 343 321 203 207 209 203
216 209 189 188 196 189 178 158 157 194 173 183 199 193 181 193 183 179 179 176 232 315 312 290 302 275 276 264 271 267 263 219 211 216 220 233 262 298 339 294 220 191 209
207 191 185 180 192 184 167 149 166 208 174 188 201 197 201 212 191 197 189 184 180 248 286 270 270 279 267 259 265 243 250 253 228 222 220 223 224 223 229 239 244 217 211
193 178 182 184 193 192 170 155 163 186 157 196 184 169 234 244 211 191 191 199 197 200 249 265 254 274 279 286 268 254 249 257 251 241 229 228 233 235 230 230 234 232 228
182 187 193 190 193 203 192 171 187 177 179 224 211 160 256 250 228 207 184 190 198 196 238 272 256 272 259 279 302 281 265 260 261 248 242 239 238 236 234 233 231 230 226
187 187 186 189 202 203 190 184 201 192 196 213 229 220 266 257 262 245 207 213 217 212 220 259 276 262 257 270 284 281 278 265 259 254 247 246 245 241 241 238 232 229 226
191 189 186 195 205 207 200 200 198 205 212 220 224 227 247 234 253 251 236 238 238 227 218 236 269 264 258 274 292 286 281 274 272 264 250 249 250 248 247 241 235 228 225
193 199 201 203 206 208 206 207 204 214 225 235 235 233 238 229 235 238 236 236 231 225 216 235 261 270 264 266 260 270 281 269 272 279 271 263 256 252 252 246 240 235 228
200 198 200 209 210 207 213 207 209 217 227 246 254 247 245 241 235 228 230 225 217 222 228 240 254 262 254 245 250 251 263 280 266 251 268 269 264 260 255 251 246 242 234
202 195 207 215 223 232 225 211 209 220 227 238 252 259 257 248 248 240 234 226 214 217 225 230 244 247 250 240 240 243 252 272 278 242 246 268 250 258 256 247 246 239 234
200 205 218 220 230 241 231 220 214 215 228 237 243 252 261 258 239 242 244 242 239 233 221 219 234 243 248 235 226 239 236 243 253 253 236 266 252 259 257 250 240 238 235
196 212 224 229 237 251 239 230 222 220 231 241 242 241 244 254 247 234 240 251 255 252 239 230 237 246 249 242 225 234 245 255 263 244 211 254 256 259 265 255 241 231 230
199 207 219 225 235 260 250 237 221 222 234 246 247 242 238 246 250 232 233 255 269 272 259 246 246 251 253 246 226 225 238 252 269 257 206 237 258 264 263 255 250 234 231
203 207 225 231 233 249 252 240 222 227 238 251 259 256 247 246 251 228 230 244 263 274 279 276 266 266 262 255 226 222 229 236 258 263 213 215 248 251 269 250 249 244 235